map of RTM home
RTM - Airport
Location
City:  Rotterdam, Zuid-Holland (South Holland), Netherlands
Name:Rotterdam The Hague Airport
ICAO:EHRD
IATA:RTM

Details
Type:Airport (Aerodrome, Airfield)
Use:Public/Civil, International (customs port of entry)
Latitude:5157'25"N (51.956944)
Longitude:426'14"E (4.437222)
Datum:WGS 1984
Elevation:-15 ft (-4 m)
Variation:1.12E (WMM2015 magnetic declination)
0.14 annual change
Runways:1
Longest:7218 × 148 ft (2200 × 45 m), paved

Time
Time Zone:UTC+1 (DST+2)
Local Time:

Weather
METAR:EHRD 251525Z AUTO 34009KT 280V040 9999 NCD 20/10 Q1025 NOSIG
TAF:EHRD 251057Z 2512/2618 33012KT 9999 SCT020
BECMG 2518/2521 35005KT PROB30
TEMPO 2600/2605 1500 BCFG
BECMG 2606/2609 36012KT

Related Locations
Nearby:
Farthest:CHT: 11866 mi / 19096 km
Waitangi [Tuuta], CIT, NZ

Find:

   beyond  
but within

Other Information
Maps:
NOTAMs:
Links:
Sources:

  
  • flag of Netherlands
  • flag of Zuid-Holland (South Holland)
  • flag of Rotterdam
  

Sectional Chart

Flight Planning
at skyvector.com

Satellite Image

Google Maps Satellite view

 

Copyright © 2004-2018 Karl L. Swartz. All rights reserved.
The Great Circle Mapper name and logo are trademarks of the Great Circle Mapper.
All other trademarks mentioned herein belong to their respective owners.
Please see credits for attibutions and further copyright information.

  Follow gcmap on Facebook Follow gcmap on Twitter Follow gcmap on Google+ GCmap on LinkedIn

hCard Microformat

Geo Microformat